Temperature
21 20 21 20 20 20 20 20 20 20 20 20 20 20 20 20 20 19 19 19 19 19 18 18 18 18 18 18 18 18 18 18 18 18 18 18 18 18 17 17 17 17 17
21 20 21 20 20 20 20 20 20 20 20 20 20 20 20 20 19 19 19 19 19 19 18 18 18 18 18 18 18 18 18 18 18 18 18 18 18 17 17 17 17 17 17
21 21 21 20 20 20 20 20 20 20 20 20 20 20 20 20 19 19 19 19 19 19 19 18 18 18 18 18 18 18 18 18 18 18 17 17 17 17 17 17 17 17 17
21 21 21 20 20 20 20 20 20 20 20 20 20 20 20 19 19 19 19 19 19 19 19 19 18 19 19 18 18 18 18 18 18 17 17 17 17 17 17 17 17 17 17
20 20 21 20 20 20 20 20 20 20 20 20 20 20 20 19 19 19 19 19 19 19 19 19 19 19 19 18 18 18 18 18 17 17 17 17 17 17 17 17 17 17 17
20 20 21 20 20 20 20 20 20 20 20 20 20 20 19 19 19 19 19 19 19 19 19 19 19 19 19 18 18 18 18 18 17 17 17 17 17 18 17 17 17 17 17
20 20 20 20 20 20 20 20 20 20 20 20 20 20 19 19 19 19 19 19 19 18 18 18 19 18 19 18 18 18 18 18 17 17 17 17 17 18 17 17 17 17 17
21 20 19 20 20 20 20 20 20 20 20 20 19 19 19 19 19 19 19 19 18 18 18 18 19 18 18 18 18 18 18 18 17 17 17 17 17 17 17 17 17 17 17
20 20 19 19 19 19 19 19 19 19 19 19 19 19 19 19 19 19 19 18 18 18 18 18 18 18 18 18 18 18 18 18 17 17 17 17 17 17 17 17 17 17 17
20 19 19 18 18 18 19 19 19 19 19 19 19 19 19 19 19 18 18 18 18 18 18 18 18 18 18 18 18 18 18 18 17 17 17 17 17 17 17 17 17 17 17
19 19 19 18 18 18 18 18 19 19 19 19 19 19 19 18 17 18 18 18 18 18 18 18 18 18 18 18 18 18 18 17 18 18 17 17 17 17 17 17 17 17 17
19 18 18 18 18 18 18 18 18 18 18 18 18 18 18 18 18 17 17 18 18 18 18 18 18 18 18 17 17 18 17 17 18 18 17 17 17 17 17 17 17 17 17
18 18 18 18 18 18 18 18 18 18 18 18 18 18 18 18 18 18 17 17 18 18 18 17 18 17 17 17 17 17 17 17 17 18 18 18 18 17 17 17 17 17 17
18 18 18 18 18 18 18 18 18 18 18 18 18 18 18 18 18 18 17 17 17 17 17 17 17 17 17 17 17 17 17 17 17 17 17 17 18 18 17 17 17 17 17
18 18 18 18 18 18 18 18 18 18 18 18 18 18 18 18 18 17 17 17 17 17 17 17 17 17 17 17 17 17 17 17 17 17 17 17 18 18 17 17 17 17 17
18 18 18 18 18 18 18 18 18 18 18 17 18 18 18 17 17 17 17 17 17 17 17 17 17 17 17 17 17 17 17 17 17 17 17 17 17 18 18 17 17 17 17
19 18 18 18 18 18 18 18 18 18 17 17 17 17 17 17 17 17 17 16 16 16 16 16 16 16 16 16 16 16 17 17 16 16 17 17 17 17 18 17 17 17 17
19 18 18 18 18 18 18 18 18 17 17 17 17 17 17 17 17 17 16 16 16 16 16 16 16 16 16 16 16 16 16 16 16 16 16 16 17 17 17 17 17 17 17
18 18 18 18 18 18 18 18 17 17 17 17 16 16 16 16 16 16 16 16 15 15 15 15 16 15 16 16 16 16 16 16 16 16 16 16 16 16 16 17 17 17 17
18 18 18 18 18 18 17 17 17 17 16 16 16 16 16 16 16 16 15 15 15 15 15 15 15 15 15 15 15 16 16 16 16 16 16 16 16 16 16 16 16 17 17
18 18 18 17 18 17 17 17 17 17 16 16 16 16 16 15 15 15 15 15 14 14 14 14 14 14 14 14 15 15 16 16 16 16 16 16 16 16 16 16 16 16 16
17 18 17 17 17 17 17 17 17 17 16 16 16 16 15 15 15 15 14 14 14 14 13 13 13 14 14 14 14 15 16 17 16 16 16 16 16 16 16 16 16 16 16
17 17 17 17 17 17 17 16 16 16 16 16 15 15 15 15 14 14 14 14 13 13 14 13 13 13 14 14 14 14 15 17 16 17 16 16 16 16 16 16 16 16 16
17 17 17 17 17 17 17 16 16 16 16 16 15 15 14 14 14 14 13 13 13 13 13 13 13 13 13 13 14 13 13 14 14 15 16 16 15 15 15 16 16 16 16
18 17 17 17 17 17 17 16 16 15 15 15 14 14 14 13 13 13 13 12 12 12 12 12 12 12 12 13 13 14 14 13 13 14 15 15 15 15 15 15 15 15 15
18 17 17 17 17 16 16 15 15 15 14 14 14 13 13 13 13 12 12 12 12 12 12 11 11 12 12 12 12 13 13 13 14 14 14 14 15 15 15 15 15 15 15
Wind_Speed
15 19 21 17 15 14 15 17 18 18 18 17 17 16 15 14 13 12 11 10 9 8 7 7 8 8 9 9 9 10 10 11 11 11 12 12 12 12 13 13 14 16 17
18 21 22 18 16 15 15 16 17 17 17 16 16 15 14 14 13 12 10 9 8 7 7 7 8 8 9 9 10 10 11 11 11 11 13 13 12 12 11 9 8 17 16
19 21 21 18 17 15 15 16 16 16 15 15 15 14 13 13 12 11 10 9 8 7 7 7 8 8 9 9 9 9 10 10 10 11 11 12 13 11 10 10 15 17 16
19 20 20 20 17 16 15 15 15 15 14 14 14 13 12 12 11 10 9 8 7 7 6 6 7 7 8 8 8 8 8 9 9 9 8 10 12 12 11 12 15 16 16
18 19 20 20 18 16 15 14 14 14 13 13 12 12 11 10 10 9 8 7 7 6 6 6 6 7 7 7 7 7 7 8 7 8 6 7 10 12 11 12 13 15 15
18 18 21 19 18 17 15 15 14 13 13 12 11 10 10 9 8 8 7 7 6 6 6 6 6 6 6 7 7 6 7 7 9 6 6 6 10 12 11 12 12 14 15
17 17 20 19 17 16 15 15 14 13 12 11 11 10 9 8 7 7 6 6 6 5 5 5 5 6 6 6 6 6 6 5 7 5 5 5 9 12 11 12 12 13 14
16 16 19 18 16 16 15 14 13 13 12 11 10 9 8 8 7 6 6 6 6 6 5 5 5 6 6 6 6 6 6 7 7 5 5 5 11 11 10 11 12 13 13
14 14 16 17 15 14 13 13 13 12 11 10 10 9 8 7 7 7 7 6 6 6 6 6 6 6 6 7 7 7 7 7 8 5 6 5 12 11 11 11 12 12 13
12 12 13 14 14 14 13 12 11 10 10 9 9 9 8 8 8 8 9 9 7 6 6 7 7 7 8 8 8 8 8 9 11 8 6 7 12 11 12 12 12 13 13
11 10 11 12 11 11 11 12 12 10 9 9 9 9 9 9 9 9 8 6 7 7 7 8 8 9 9 10 11 10 10 11 11 9 7 9 12 12 13 14 14 14 14
13 11 9 9 9 9 8 9 8 9 9 9 7 7 7 5 5 6 4 6 7 8 9 10 10 10 11 10 12 13 11 13 11 9 7 11 11 13 14 15 15 16 16
12 10 9 8 7 7 6 6 5 5 5 7 6 6 5 5 5 5 4 5 7 9 9 8 10 10 10 8 7 9 10 10 9 10 9 13 13 14 16 16 17 17 18
10 9 8 7 6 5 4 4 4 3 3 4 4 4 4 4 4 4 4 5 5 6 6 6 7 8 9 9 10 10 11 10 10 10 8 13 14 15 16 18 19 19 20
8 7 6 4 4 4 3 3 3 2 2 2 3 3 4 4 4 4 4 5 6 7 6 6 8 8 9 9 11 12 12 13 13 13 10 13 15 17 18 18 19 21 22
9 8 6 5 4 4 3 2 1 1 2 3 2 1 2 3 3 3 3 4 6 6 6 6 8 7 8 8 10 12 12 14 14 15 15 13 17 19 19 20 20 22 23
8 8 7 6 5 4 3 2 1 1 1 1 1 1 1 1 2 2 3 3 4 5 5 6 7 8 8 9 11 11 11 13 14 15 16 15 15 19 21 21 22 22 23
7 7 7 6 6 5 4 2 2 1 1 1 1 1 0 0 1 2 2 3 3 4 5 5 6 7 7 8 9 9 10 11 14 15 16 16 16 15 19 23 23 23 23
7 7 7 6 7 6 5 3 2 2 1 1 1 0 1 1 2 2 2 2 4 4 5 6 5 6 7 8 9 9 10 11 11 13 14 17 17 17 17 18 24 25 25
7 6 6 6 7 6 5 3 2 2 2 1 1 1 0 0 1 3 3 2 5 5 5 5 6 6 7 8 9 10 10 11 12 12 14 15 17 19 20 19 18 22 27
7 7 6 6 6 5 4 3 3 2 2 1 1 1 1 1 1 3 5 3 5 5 6 7 7 7 7 6 8 10 10 12 12 11 12 13 15 17 19 19 18 18 19
6 6 6 6 5 4 3 2 1 1 2 1 1 1 2 2 3 4 4 5 5 5 6 6 6 7 7 6 7 9 9 9 9 10 10 11 13 12 14 17 18 18 18
7 6 5 5 4 3 3 3 2 3 3 3 3 3 3 4 5 5 5 6 6 8 7 7 8 8 8 8 6 6 7 7 7 6 8 9 9 10 11 12 15 18 20
6 6 5 5 4 4 4 3 3 4 4 4 4 4 4 5 6 6 7 7 7 9 8 9 8 8 9 9 7 7 8 8 7 7 6 6 8 9 10 10 12 15 18
6 5 5 5 4 3 3 3 4 5 5 5 5 6 6 6 7 7 7 7 7 9 9 9 9 10 9 10 9 8 8 8 9 9 9 8 7 7 8 9 9 10 15
5 5 5 5 4 4 4 4 5 6 6 7 8 8 8 7 7 8 8 8 9 9 9 9 9 11 10 10 10 10 9 8 8 8 9 9 9 8 7 7 8 9 11
Wind_Direction
154 148 146 153 152 151 151 153 154 156 157 156 155 154 153 151 149 146 143 139 134 129 119 112 111 112 114 115 118 118 119 120 121 121 120 118 117 119 124 132 139 119 120
148 146 147 152 152 150 149 149 150 152 154 156 155 154 153 152 150 148 146 141 138 131 120 111 110 112 114 116 117 118 121 124 127 127 128 125 122 123 129 136 117 119 128
145 145 151 152 152 149 146 146 146 146 148 151 152 152 152 152 151 151 149 146 144 136 125 117 115 114 114 116 119 123 125 128 131 140 158 139 125 127 128 117 114 127 131
145 148 155 151 151 149 145 143 142 143 145 146 148 150 152 152 153 153 151 150 149 142 133 126 123 121 120 122 126 128 130 132 139 173 170 129 130 128 130 126 129 133 133
147 149 148 153 153 150 146 143 141 141 142 144 146 149 151 153 154 155 154 155 154 148 143 138 132 129 129 130 132 135 135 137 159 209 121 126 125 134 140 136 138 139 138
151 150 147 155 154 153 150 147 145 143 143 144 147 149 152 156 159 159 160 161 160 157 155 151 146 141 140 141 143 145 145 154 200 162 134 145 131 142 149 147 147 145 144
152 148 148 156 156 155 154 153 150 149 148 149 151 154 158 163 166 166 168 170 171 170 166 161 157 158 158 158 157 156 161 195 236 144 158 146 127 145 159 158 155 153 151
152 149 146 155 158 158 158 157 155 154 153 155 159 163 168 174 180 181 186 190 189 186 181 177 176 176 178 178 180 181 189 229 222 183 180 153 132 159 170 168 164 161 160
154 148 150 158 161 162 162 161 160 160 161 163 167 173 179 185 191 197 201 204 207 206 200 197 197 199 200 199 200 204 210 239 255 210 201 169 148 175 182 178 175 172 169
155 154 158 161 163 168 168 166 166 167 169 172 177 183 189 199 206 207 212 205 218 224 222 220 217 215 215 214 214 217 221 232 242 225 214 167 156 186 193 188 186 185 180
160 162 164 162 167 175 175 164 175 177 180 187 193 196 205 215 212 206 217 193 218 227 231 231 229 225 225 220 220 222 227 237 235 235 223 150 168 194 200 197 195 194 191
165 167 169 166 171 177 178 167 190 191 183 203 202 204 217 226 236 239 173 207 232 237 237 231 231 230 232 231 214 212 233 236 248 235 215 157 184 204 208 206 203 202 200
165 167 167 167 174 178 177 178 195 204 189 207 212 214 227 240 240 245 239 220 230 237 241 228 227 235 236 240 244 229 241 249 244 244 219 173 195 212 217 215 210 208 206
166 167 164 168 173 180 186 183 201 219 210 220 214 230 233 244 258 262 263 266 255 253 253 254 250 247 251 249 247 246 246 245 249 248 231 182 200 215 223 222 218 214 211
161 163 155 160 175 182 189 216 199 224 250 243 254 247 257 254 260 261 262 267 267 263 256 252 254 254 253 250 250 246 244 244 247 249 241 198 207 219 224 226 224 220 215
165 164 160 168 171 178 195 211 205 232 232 253 245 252 251 256 261 261 254 265 270 273 274 270 265 259 256 254 250 249 248 247 243 244 246 230 213 218 224 226 226 224 220
160 158 163 165 167 170 183 202 189 217 219 215 185 203 241 258 263 271 269 265 280 281 271 266 268 264 259 257 256 254 250 249 248 244 244 244 235 220 221 225 226 225 223
149 151 156 158 157 165 172 185 172 196 206 194 190 177 161 303 286 283 296 293 299 286 282 277 267 269 267 266 266 262 257 252 250 248 244 239 239 238 223 219 222 223 224
133 137 144 151 150 151 158 167 166 181 198 183 190 153 68 10 346 316 318 331 296 293 292 287 287 281 277 274 271 260 256 254 252 251 249 245 239 237 237 219 216 221 223
132 136 141 149 146 153 154 160 162 165 169 171 171 112 340 292 309 313 293 308 301 294 291 291 291 280 281 279 279 274 261 257 253 250 249 247 241 235 234 234 223 220 221
140 142 146 149 153 164 164 178 178 180 188 189 187 142 235 293 309 299 306 309 295 296 299 294 290 282 278 288 284 277 264 251 246 248 245 245 241 236 235 233 231 226 219
144 143 149 161 162 175 165 186 202 206 226 221 237 202 251 272 281 278 296 294 296 297 281 286 285 291 291 289 290 291 282 264 236 243 243 241 243 238 235 233 230 227 229
151 155 154 158 164 174 177 193 189 207 231 234 244 244 257 272 272 284 284 288 299 289 287 289 285 279 287 287 278 282 288 287 304 258 245 246 243 239 238 238 232 229 226
159 160 163 171 176 183 204 221 242 262 276 290 286 286 282 276 279 280 281 282 284 287 289 278 278 282 277 280 274 263 270 286 286 288 268 251 245 244 245 244 237 229 226
171 174 177 181 189 197 221 234 256 271 285 289 291 288 287 281 275 279 282 285 284 281 285 287 288 278 275 275 279 278 275 270 263 271 282 282 269 254 247 245 239 236 231
186 192 194 190 200 211 227 243 261 280 289 295 293 294 287 285 281 280 284 285 282 284 284 278 278 272 270 274 275 275 275 277 281 280 280 281 279 271 259 251 242 235 234
Height
1527 1528 1529 1533 1536 1539 1542 1545 1547 1549 1551 1553 1554 1556 1557 1558 1559 1561 1561 1562 1563 1564 1565 1565 1566 1566 1567 1567 1567 1568 1568 1568 1568 1569 1569 1569 1569 1570 1571 1571 1573 1573 1573
1527 1528 1530 1534 1537 1540 1543 1546 1548 1550 1552 1554 1556 1557 1559 1560 1561 1562 1563 1564 1565 1565 1566 1567 1567 1568 1568 1568 1569 1569 1569 1570 1570 1570 1571 1571 1571 1572 1573 1574 1575 1575 1576
1527 1529 1532 1535 1538 1541 1544 1547 1549 1552 1554 1555 1557 1558 1560 1561 1562 1563 1564 1565 1566 1566 1567 1568 1568 1569 1569 1570 1570 1570 1571 1571 1572 1572 1573 1575 1574 1574 1575 1576 1576 1577 1578
1529 1531 1533 1536 1540 1543 1546 1548 1550 1553 1555 1556 1558 1559 1561 1562 1563 1564 1565 1566 1567 1568 1568 1569 1569 1570 1570 1571 1571 1572 1572 1573 1574 1574 1577 1578 1577 1576 1577 1578 1579 1579 1580
1531 1533 1535 1538 1541 1544 1547 1549 1552 1554 1556 1557 1559 1560 1562 1563 1564 1565 1566 1567 1568 1569 1569 1570 1570 1571 1571 1572 1572 1573 1574 1574 1575 1577 1579 1579 1579 1578 1578 1579 1580 1581 1582
1533 1536 1537 1539 1543 1545 1548 1551 1553 1555 1557 1558 1560 1561 1563 1564 1565 1566 1567 1568 1569 1569 1570 1571 1571 1572 1572 1573 1573 1574 1575 1576 1577 1580 1580 1580 1580 1579 1580 1581 1582 1583 1584
1536 1538 1539 1541 1544 1547 1549 1552 1554 1556 1558 1559 1561 1562 1563 1564 1566 1567 1568 1569 1569 1570 1571 1571 1572 1573 1573 1574 1574 1575 1576 1577 1579 1581 1581 1581 1581 1580 1581 1582 1583 1585 1586
1538 1540 1540 1543 1546 1548 1551 1553 1555 1557 1558 1560 1561 1562 1564 1565 1566 1567 1568 1569 1570 1570 1571 1572 1572 1573 1573 1574 1575 1575 1576 1577 1580 1582 1582 1582 1581 1581 1582 1583 1584 1586 1587
1540 1542 1542 1545 1547 1549 1552 1554 1556 1558 1559 1560 1562 1563 1564 1565 1566 1567 1568 1569 1570 1570 1571 1571 1572 1572 1573 1574 1574 1575 1576 1577 1579 1581 1582 1582 1581 1581 1582 1583 1585 1586 1588
1541 1543 1545 1547 1549 1551 1553 1554 1556 1558 1559 1560 1562 1563 1564 1565 1566 1566 1567 1568 1569 1569 1570 1570 1571 1572 1572 1573 1574 1575 1575 1576 1578 1580 1581 1581 1580 1581 1582 1583 1585 1586 1588
1540 1543 1546 1548 1549 1552 1554 1555 1557 1558 1559 1560 1561 1562 1563 1565 1566 1566 1567 1567 1568 1568 1569 1569 1570 1571 1571 1571 1572 1573 1574 1576 1578 1579 1580 1579 1579 1581 1582 1583 1584 1586 1587
1540 1543 1545 1548 1549 1552 1554 1555 1557 1558 1559 1560 1561 1562 1563 1564 1565 1566 1566 1566 1566 1566 1567 1567 1568 1569 1569 1571 1571 1571 1572 1574 1576 1577 1577 1576 1578 1579 1580 1582 1583 1585 1586
1540 1543 1545 1547 1548 1551 1553 1555 1557 1558 1559 1559 1560 1560 1561 1562 1563 1564 1564 1564 1564 1564 1565 1566 1566 1567 1568 1568 1569 1570 1570 1572 1573 1574 1575 1574 1575 1577 1579 1580 1582 1583 1585
1540 1543 1544 1546 1548 1550 1552 1554 1555 1556 1557 1558 1559 1559 1560 1561 1561 1561 1561 1562 1562 1562 1562 1563 1563 1564 1564 1565 1565 1566 1567 1568 1569 1570 1571 1570 1572 1574 1576 1577 1579 1581 1583
1540 1542 1543 1545 1548 1550 1551 1552 1553 1554 1556 1556 1557 1557 1558 1559 1559 1559 1559 1559 1560 1560 1560 1560 1560 1560 1560 1561 1561 1562 1562 1563 1564 1565 1566 1566 1567 1570 1572 1574 1575 1578 1580
1540 1542 1544 1545 1547 1548 1550 1551 1552 1552 1553 1554 1555 1555 1556 1556 1556 1557 1557 1556 1557 1557 1557 1557 1557 1556 1556 1557 1556 1556 1557 1558 1558 1559 1561 1561 1562 1564 1566 1569 1571 1574 1576
1540 1542 1543 1545 1546 1547 1549 1550 1550 1551 1552 1553 1553 1553 1554 1554 1554 1554 1554 1554 1554 1554 1553 1553 1553 1552 1552 1552 1552 1552 1552 1552 1552 1553 1554 1556 1557 1558 1560 1563 1566 1568 1571
1540 1541 1543 1545 1545 1547 1548 1549 1549 1550 1550 1551 1551 1552 1552 1552 1551 1551 1552 1552 1551 1551 1551 1550 1549 1549 1548 1548 1547 1547 1547 1546 1546 1547 1548 1549 1551 1553 1554 1556 1559 1562 1565
1540 1541 1543 1544 1545 1546 1547 1548 1549 1549 1549 1550 1550 1551 1550 1550 1550 1550 1550 1550 1549 1549 1548 1547 1547 1546 1545 1543 1543 1541 1541 1541 1541 1541 1542 1543 1544 1546 1548 1550 1552 1555 1559
1540 1542 1543 1544 1545 1546 1547 1548 1549 1549 1549 1549 1549 1549 1549 1549 1548 1548 1549 1547 1547 1546 1545 1544 1543 1542 1541 1540 1539 1538 1536 1535 1535 1535 1535 1536 1537 1539 1541 1544 1546 1548 1551
1541 1542 1543 1544 1545 1546 1548 1549 1549 1549 1549 1549 1549 1548 1548 1547 1547 1546 1546 1545 1544 1544 1542 1541 1540 1539 1538 1537 1536 1534 1532 1531 1530 1529 1529 1529 1530 1532 1534 1536 1539 1541 1544
1542 1542 1543 1544 1546 1546 1547 1548 1548 1549 1549 1549 1548 1546 1546 1545 1544 1544 1543 1542 1542 1540 1539 1538 1536 1536 1535 1534 1533 1531 1529 1528 1525 1525 1524 1523 1524 1526 1527 1529 1531 1534 1537
1543 1543 1544 1545 1545 1546 1547 1548 1548 1547 1547 1547 1546 1545 1543 1542 1541 1540 1539 1539 1538 1538 1537 1535 1534 1533 1532 1531 1530 1530 1527 1523 1522 1521 1520 1519 1519 1520 1521 1523 1524 1526 1529
1543 1543 1544 1544 1545 1545 1546 1546 1547 1546 1546 1545 1544 1543 1541 1539 1538 1537 1536 1535 1534 1534 1533 1531 1531 1530 1529 1528 1527 1526 1525 1523 1522 1518 1517 1516 1515 1515 1516 1517 1518 1520 1522
1543 1543 1543 1543 1544 1544 1544 1544 1544 1544 1543 1542 1541 1539 1537 1536 1534 1533 1531 1530 1529 1529 1528 1527 1526 1525 1525 1525 1524 1523 1521 1520 1518 1517 1514 1513 1512 1511 1511 1511 1511 1513 1516
1541 1542 1542 1542 1542 1542 1542 1541 1541 1540 1539 1538 1537 1536 1534 1533 1531 1530 1528 1526 1525 1524 1523 1522 1521 1521 1520 1520 1519 1519 1518 1517 1515 1513 1511 1509 1508 1507 1506 1506 1506 1507 1509